Location: Beau Repaire
(50.6144°N, 4.0551°E)
Time: 10:52:24
(UTC+00:00)

Cosmos 2233 Rocket - Pass Details

Date: 15 May 2026
Orbit: 952 x 990 km, 82.9° (Epoch: 5 June)

Event Time Altitude Azimuth Distance (km) Brightness Sun altitude
Rises 20:06:43 0° 181° (S) 3,648 6.6 -6.1°
Reaches altitude 10° 20:09:13 10° 180° (S) 2,700 5.9 -6.4°
Maximum altitude 20:15:22 75° 96° (E) 997 4.0 -7.1°
Drops below altitude 10° 20:21:31 10° 13° (NNE) 2,696 6.8 -7.8°
Sets 20:24:01 0° 11° (NNE) 3,643 7.5 -8.1°
